Regional Weather Roundup
Issued by NWS Grand Forks, ND

Home | Current Version | Previous Version | Graphics & Text | Print | Product List | Glossary On
Versions: 1 2 3 4 5 6 7 8 9 10 11 12 13 14 15 16 17 18 19 20 21 22 23 24 25 26 27 28 29 30 31 32 33 34 35 36 37 38 39 40 41 42 43 44 45 46 47 48 49 50
000
ASUS43 KFGF 280310
RWRFGF
PRAIRIE TO PINES  WEATHER ROUNDUP
NATIONAL WEATHER SERVICE EASTERN NORTH DAKOTA/GRAND FORKS ND
1000 PM CDT WED JUL 27 2016

 **SATELLITE DATA USED TO AUGMENT SKY COVER AT AUTOMATED STATIONS**
 *****  WEATHER ACROSS EASTERN NORTH DAKOTA  *****

CITY           SKY/WX    TMP DP  RH WIND       PRES   REMARKS
GRAND FORKS    PTCLDY    67  57  70 N10       30.07R
GRAND FRKS AFB PTCLDY    66  57  74 N9        30.09R
GRAND FRKS NWS   N/A     66 N/A N/A N12         N/A
DEVILS LAKE    PTCLDY    62  57  83 NE7       30.14R
FARGO          CLOUDY    69  60  73 NW10      30.05R
WAHPETON ARPT  CLEAR     64  57  77 NW8       30.04S
$$

 ***** WEATHER ACROSS CENTRAL AND WESTERN NORTH DAKOTA  *****

CITY           SKY/WX    TMP DP  RH WIND       PRES   REMARKS
BISMARCK       CLOUDY    70  61  73 E8        30.12R
MINOT          CLOUDY    69  60  73 NE5       30.13R
JAMESTOWN      PTCLDY    63  60  90 N6        30.11R
MINOT AFB      CLOUDY    67  57  69 E6        30.12R
GARRISON         N/A     67  60  78 E7        30.13R
WILLISTON      CLOUDY    66  59  78 NE5       30.14R
DICKINSON      CLOUDY    63  60  90 NE8       30.13R
HETTINGER      CLEAR     64  58  80 E6        30.14R
$$

 *****  OTHER AIRPORT OBSERVATIONS IN OUR AREA  *****

CITY           SKY/WX    TMP DP  RH WIND       PRES   REMARKS
WALHALLA       NOT AVBL
GRAFTON AIRPOR FAIR      66  59  77 N10       30.11S
VALLEY CITY AR FAIR      63  63 100 N5        30.12R
CANDO          NOT AVBL
CAVALIER APRT  FAIR      64  57  77 N7        30.12R
GWINNER        FAIR      63  57  82 NW7       30.09R
SHEYENNE NWR     N/A     66  58  74 N3        29.95S
ROLLA          FAIR      57  55  94 NE7       30.16S
 ***** THE ABOVE OBSERVATIONS ARE NON NWS ARE NOT QUALITY
       CONTROLLED AND MAY MIS-REPORT RAIN FOR SNOW...
$$

  *****  WEATHER ACROSS NORTHERN MINNESOTA  *****

CITY           SKY/WX    TMP DP  RH WIND       PRES   REMARKS
FLAG ISLAND    CLEAR     66  55  68 NE10      30.09R
WARROAD        NOT AVBL
ROSEAU         CLOUDY    64  59  82 NE8       30.09R
HALLOCK        PTCLDY    66  59  77 N10       30.09R
THF RVR FALLS  CLOUDY    70  60  70 NE9       30.07R
BAUDETTE       CLEAR     65  55  70 NE9       30.07R
WASKISH        CLOUDY    66  57  72 CALM      30.06R
CROOKSTON      CLOUDY    70  61  73 N10       30.07R
GREENBUSH NDAW   N/A     66  63  88 N3          N/A
$$
  *****  WEATHER ACROSS CENTRAL AND WEST MINNESOTA  *****

CITY           SKY/WX    TMP DP  RH WIND       PRES   REMARKS
FOSSTON        CLOUDY    64  61  88 CALM      30.07R
BEMIDJI        CLEAR     64  61  88 W3        30.05R
PARK RAPIDS    CLOUDY    69  62  78 CALM      30.06R
ELBOW LAKE     MOCLDY    66  60  80 W8        30.04R
WADENA         CLOUDY    66  63  88 E5        30.05R
DETROIT LAKES  PTCLDY    68  63  83 E5        30.07R
MOORHEAD       PTCLDY    66  61  82 N7        30.05R
FERGUS FALLS   PTCLDY    64  59  82 NW7       30.05R
MORRIS MN      CLEAR     66  59  77 NW7       30.03R
STAPLES        MOCLDY    64  61  88 CALM      30.06R
$$
  *****  WEATHER ELSEWHERE ACROSS MINNESOTA  *****

CITY           SKY/WX    TMP DP  RH WIND       PRES   REMARKS
DULUTH         CLEAR     57  57 100 SE5       30.04R
INTRNTL FALLS  CLEAR     67  54  63 NE7       30.06R
ELY            PTCLDY    61  61 100 CALM      30.06R
CLOQUET        CLEAR     59  55  88 CALM      30.04S
WHEATON        CLEAR     66  61  82 W5        30.06R
BRAINERD       CLEAR     64  62  93 NW5       30.05R
HIBBING        FOG       60  60 100 CALM      30.04R VSB 1/2
ALEXANDRIA     MOCLDY    69  63  81 NE6       30.05R
SAINT CLOUD    CLOUDY    66  63  90 NE7       30.03R
MINNEAPOLIS    CLOUDY    70  64  81 N6        29.98R
$$

  *****  WEATHER ACROSS SOUTH DAKOTA  *****

CITY           SKY/WX    TMP DP  RH WIND       PRES   REMARKS
SIOUX FALLS    CLOUDY    71  64  78 N7        30.03S
BROOKINGS      CLOUDY    67  61  81 N3        30.06R
WATERTOWN      CLOUDY    65  59  81 NE5       30.07S
HURON          MOCLDY    72  61  68 N9        30.03F
SISSETON         N/A     62  60  93 N6        30.05R
ABERDEEN       CLOUDY    69  61  75 NE3       30.07R
MITCHELL       CLOUDY    73  65  75 NE6       30.03S
PIERRE         PTCLDY    69  63  81 N6        30.06R
MOBRIDGE       CLOUDY    72  60  66 NE8       30.07S
RAPID CITY     PTCLDY    67  58  72 E5        30.15R
$$

  *****  SOME WEATHER IN NEARBY STATES *****

CITY           SKY/WX    TMP DP  RH WIND       PRES   REMARKS
GLASGOW MT     CLOUDY    62  59  90 E6        30.12S
GREAT FALLS MT PTCLDY    74  52  46 E15       30.15R
CHEYENNE WY    CLEAR     68  57  68 E5        30.24R
SCOTTSBLUFF NE CLEAR     75  58  55 NE13      30.14R
OMAHA NE       CLOUDY    77  71  82 N5        29.97R
DES MOINES IA  PTCLDY    80  68  66 CALM      29.95R
DAVENPORT IA   MOCLDY    75  71  87 E5        29.94S
CHICAGO IL     MOCLDY    78  64  61 NW7       29.95R
EAU CLAIRE WI  CLOUDY    66  65  96 NE5       29.95R
LA CROSSE WI   CLOUDY    76  69  79 SE6       29.91R
$$

  *****  SOME NATIONAL WEATHER *****

CITY           SKY/WX    TMP DP  RH WIND       PRES   REMARKS
LA GUARDIA NY  PTCLDY    83  69  62 S8        29.90F
RALEIGH NC     MOCLDY    77  70  79 NE5       29.97R
ATLANTA GA     PTCLDY    81  66  60 W6        30.05R
NEW ORLEANS LA PTCLDY    81  73  76 S8        30.02R
OKLAHOMA CITY  PTCLDY    74  73  97 S3        29.95R
ALBUQUERQUE NM CLOUDY    83  43  24 E8        30.12R
SALT LAKE CITY CLEAR     94  29  10 E6        30.01F
LOS ANGELES CA PTCLDY    72  66  81 W10       29.88R
BOISE ID       CLEAR     93  41  16 NW9       29.92S
SEATTLE WA     PTCLDY    80  59  48 N9        30.08F
$$

*** WEATHER ACROSS MANITOBA...SASKATCHEWAN AND ONTARIO ***
                ***ONTARIO***

CITY           SKY/WX    TMP DP  RH WIND       PRES   REMARKS
GERALDTON      PTCLDY    61  50  67 N6        30.05R
THUNDER BAY    PTCLDY    63  57  82 NE5       30.03R
SIOUX LOOKOUT  PTCLDY    59  54  82 N5        30.10R
TORONTO        PTCLDY    77  64  65 NW8       29.92S
BIG TROUT LK   NOT AVBL
PICKLE LAKE    NOT AVBL
DRYDEN         CLEAR     59  52  77 N7        30.10S
KENORA         PTCLDY    57  50  77 N3        30.13R
$$
                *** MANITOBA***

CITY           SKY/WX    TMP DP  RH WIND       PRES   REMARKS
BRANDON        MOCLDY    61  55  82 E3        30.15R
DAUPHIN        CLEAR     59  54  82 SW3       30.14R
ISLAND LAKE    PTCLDY    63  55  77 CALM      30.11S
PILOT MOUND      N/A     61  54  77 NE5         N/A
THE PAS        CLOUDY    66  57  72 SE8       30.08S
THOMPSON       NOT AVBL
WINNIPEG       PTCLDY    59  54  82 N5        30.13R
LYNN LAKE      CLOUDY    64  57  77 MISG      30.05R
CHURCHILL      MOCLDY    59  50  72 S13       30.02F
GILLAM         CLOUDY    59  48  67 S5        30.08R
$$
                ***SASKATCHEWAN***

CITY           SKY/WX    TMP DP  RH WIND       PRES   REMARKS
ESTEVAN        MOCLDY    63  57  82 NE5       30.15R
KINDERSLEY     PTCLDY    63  59  88 SE7       30.14S
LLOYDMINSTER   PTCLDY    70  61  73 CALM      30.11R
PRINCE ALBERT  PTCLDY    70  59  68 S7        30.09S
REGINA         PTCLDY    66  55  68 E7        30.16R
YORKTON        CLEAR     64  54  68 S2        30.15R
N. BATTLEFORD  PTCLDY    68  57  68 SE7       30.13R
LA RONGE       MOCLDY    68  61  77 NE5       30.07R
SASKATOON      PTCLDY    70  54  56 S8        30.15R
SWIFT CURRENT  CLEAR     64  54  68 E7        30.16S
$$
NOTE: THESE ARE AUTOMATED STATIONS WITH LIMITED QUALITY CONTROL
      "FAIR" INDICATES FEW OR NO CLOUDS BELOW 12,000 FEET WITH NO
      SIGNIFICANT WEATHER AND/OR OBSTRUCTIONS TO VISIBILITY.
      SKY/WX - SKY CONDITION AND SIGNIFICANT WEATHER.
      TMP - AIR TEMPERATURE.    DP   - DEWPOINT TEMPERATURE.
      RH  - RELATIVE HUMIDITY.  PRES - PRESSURE.
      HX  - HEAT INDEX.         WCI  - WIND CHILL INDEX.
$



USA.gov is the U.S. government's official web portal to all federal, state and local government web resources and services.